Location: Martley
(52.2333°N, 2.3667°W)
Time: 06:30:51
(UTC+00:00)

Cosmos 1850 Rocket - Pass Details

Date: 11 December 2019
Orbit: 754 x 786 km, 74.0° (Epoch: 27 January)

Event Time Altitude Azimuth Distance (km) Brightness Sun altitude
Exits shadow 05:58:37 31° 309° (NW) 1,369 4.8 -18.5°
Maximum altitude 06:00:51 50° 253° (WSW) 1,003 4.2 -18.2°
Drops below altitude 10° 06:05:58 10° 179° (S) 2,340 6.7 -17.5°
Sets 06:08:24 0° 174° (S) 3,263 7.5 -17.1°
